Weather History for Farmville, VA

Change the Weather History Date:

Saturday, February 1, 2014

  Actual Average Record
Temperature  
Mean Temperature 44 °F -  
Max Temperature 64 °F 49 °F 80 °F (2002)
Min Temperature 23 °F 25 °F 0 °F (1940)
Degree Days  
Heating Degree Days 22    
Moisture  
Dew Point 10 °F    
Average Humidity 29    
Maximum Humidity 59    
Minimum Humidity 9    
Precipitation  
Precipitation 0.00 in - - ()
Sea Level Pressure  
Sea Level Pressure 30.15 in    
Wind  
Wind Speed 2 mph (South)    
Max Wind Speed 9 mph    
Max Gust Speed -    
Visibility 10 miles    
Events      
Averages and records for this station are not official NWS values.
T = Trace of Precipitation, MM = Missing Value Source: NWS Daily Summary

Daily Weather History Graph

Daily Weather History Graph

Search for Another Location

Airport:

Trip Planner

Search our weather history database for the weather conditions in past years. The results will help you decide how hot, cold, wet, or windy it might be!

Date:

Astronomy

Feb. 01, 2014 Rise Set
Actual Time 7:16 AM EST 5:38 PM EST
Civil Twilight 6:49 AM EST 6:05 PM EST
Nautical Twilight 6:18 AM EST 6:36 PM EST
Astronomical Twilight 5:47 AM EST 7:07 PM EST
Moon 8:08 AM EST (2/1) 8:06 PM EST (2/1)
Length of Visible Light 11h 16m
Length of Day
10h 21m
Waxing Crescent, 5% of the Moon is Illuminated
Feb 1
Waxing Crescent
Feb 6
First Quarter
Feb 14
Full
Feb 22
Last Quarter
Mar 1
New

Hourly Weather History & Observations

Time (EST) Temp. Windchill Dew Point Humidity Pressure Visibility Wind Dir Wind Speed Gust Speed Precip Events Conditions
12:15 AM 28.4 °F - 12.2 °F 51% 30.18 in 10.0 mi Calm Calm - N/A   Clear
12:35 AM 28.4 °F - 15.8 °F 59% 30.18 in 10.0 mi Calm Calm - N/A   Clear
12:55 AM 28.4 °F 24.6 °F -4.0 °F 25% 30.18 in 10.0 mi North 3.5 mph - N/A   Clear
1:15 AM 30.2 °F - 1.4 °F 29% 30.18 in 10.0 mi Calm Calm - N/A   Clear
1:35 AM 28.4 °F - 12.2 °F 51% 30.18 in 10.0 mi Calm Calm - N/A   Clear
1:55 AM 26.6 °F - 10.4 °F 51% 30.18 in 10.0 mi Calm Calm - N/A   Clear
2:15 AM 28.4 °F - 8.6 °F 43% 30.18 in 10.0 mi Calm Calm - N/A   Clear
2:35 AM 30.2 °F - -0.4 °F 27% 30.19 in 10.0 mi Calm Calm - N/A   Clear
2:55 AM 30.2 °F 26.7 °F -9.4 °F 18% 30.19 in 10.0 mi North 3.5 mph - N/A   Clear
3:15 AM 26.6 °F - 3.2 °F 37% 30.20 in 10.0 mi Calm Calm - N/A   Clear
3:35 AM 26.6 °F - 6.8 °F 43% 30.20 in 10.0 mi Calm Calm - N/A   Clear
3:55 AM 24.8 °F - 8.6 °F 50% 30.20 in 10.0 mi Calm Calm - N/A   Clear
4:15 AM 26.6 °F - 10.4 °F 51% 30.20 in 10.0 mi Calm Calm - N/A   Clear
4:35 AM 26.6 °F - 12.2 °F 55% 30.19 in 10.0 mi Calm Calm - N/A   Clear
4:55 AM 26.6 °F - 8.6 °F 47% 30.20 in 10.0 mi Calm Calm - N/A   Clear
5:15 AM 26.6 °F - 8.6 °F 47% 30.21 in 10.0 mi Calm Calm - N/A   Clear
5:35 AM 24.8 °F - 8.6 °F 50% 30.22 in 10.0 mi Calm Calm - N/A   Clear
5:55 AM 24.8 °F - 6.8 °F 46% 30.23 in 10.0 mi Calm Calm - N/A   Clear
6:15 AM 24.8 °F - 6.8 °F 46% 30.23 in 10.0 mi Calm Calm - N/A   Clear
6:35 AM 23.0 °F - 5.0 °F 46% 30.24 in 10.0 mi Calm Calm - N/A   Clear
6:55 AM 24.8 °F - 3.2 °F 40% 30.24 in 10.0 mi Calm Calm - N/A   Clear
7:15 AM 23.0 °F - 6.8 °F 50% 30.25 in 10.0 mi Calm Calm - N/A   Clear
7:35 AM 24.8 °F - 6.8 °F 46% 30.25 in 10.0 mi Calm Calm - N/A   Clear
7:55 AM 24.8 °F - 12.2 °F 59% 30.25 in 10.0 mi Calm Calm - N/A   Clear
8:15 AM 30.2 °F - 15.8 °F 55% 30.25 in 10.0 mi Calm Calm - N/A   Clear
8:35 AM 35.6 °F - 19.4 °F 52% 30.25 in 10.0 mi Calm Calm - N/A   Clear
8:55 AM 39.2 °F - 17.6 °F 42% 30.25 in 10.0 mi Calm Calm - N/A   Clear
9:15 AM 39.2 °F 37.0 °F 10.4 °F 31% 30.25 in 10.0 mi NNE 3.5 mph - N/A   Clear
9:35 AM 42.8 °F 40.1 °F 15.8 °F 34% 30.25 in 10.0 mi NE 4.6 mph - N/A   Clear
9:55 AM 44.6 °F 43.1 °F 15.8 °F 31% 30.25 in 10.0 mi ENE 3.5 mph - N/A   Clear
10:15 AM 44.6 °F 42.2 °F 15.8 °F 31% 30.25 in 10.0 mi NNE 4.6 mph - N/A   Clear
10:35 AM 46.4 °F - 15.8 °F 29% 30.25 in 10.0 mi Calm Calm - N/A   Clear
10:55 AM 51.8 °F - 15.8 °F 24% 30.24 in 10.0 mi East 3.5 mph - N/A   Clear
11:15 AM 53.6 °F - 19.4 °F 26% 30.24 in 10.0 mi Calm Calm - N/A   Clear
11:35 AM 55.4 °F - 17.6 °F 23% 30.21 in 10.0 mi North 3.5 mph - N/A   Clear
11:55 AM 57.2 °F - 10.4 °F 16% 30.21 in 10.0 mi Calm Calm - N/A   Clear
12:15 PM 59.0 °F - 12.2 °F 16% 30.19 in 10.0 mi South 4.6 mph - N/A   Clear
12:35 PM 59.0 °F - 12.2 °F 16% 30.18 in 10.0 mi South 8.1 mph - N/A   Clear
12:55 PM 59.0 °F - 12.2 °F 16% 30.16 in 10.0 mi South 5.8 mph - N/A   Clear
1:15 PM 60.8 °F - 14.0 °F 16% 30.15 in 10.0 mi South 8.1 mph - N/A   Clear
1:35 PM 60.8 °F - 10.4 °F 14% 30.14 in 10.0 mi SSW 5.8 mph - N/A   Clear
1:55 PM 62.6 °F - 8.6 °F 12% 30.12 in 10.0 mi Calm Calm - N/A   Clear
2:15 PM 64.4 °F - 10.4 °F 12% 30.12 in 10.0 mi South 4.6 mph - N/A   Clear
2:35 PM 64.4 °F - 6.8 °F 10% 30.11 in 10.0 mi SSE 5.8 mph - N/A   Clear
2:55 PM 62.6 °F - 3.2 °F 9% 30.11 in 10.0 mi South 8.1 mph - N/A   Scattered Clouds
3:15 PM 60.8 °F - 8.6 °F 13% 30.10 in 10.0 mi South 6.9 mph - N/A   Overcast
3:35 PM 60.8 °F - 6.8 °F 12% 30.10 in 10.0 mi South 6.9 mph - N/A   Overcast
3:55 PM 60.8 °F - 6.8 °F 12% 30.10 in 10.0 mi South 6.9 mph - N/A   Overcast
4:15 PM 60.8 °F - 6.8 °F 12% 30.10 in 10.0 mi Calm Calm - N/A   Overcast
4:35 PM 60.8 °F - 8.6 °F 13% 30.10 in 10.0 mi South 4.6 mph - N/A   Overcast
4:55 PM 59.0 °F - 6.8 °F 13% 30.09 in 10.0 mi South 9.2 mph - N/A   Overcast
5:15 PM 57.2 °F - 8.6 °F 14% 30.09 in 10.0 mi South 6.9 mph - N/A   Overcast
5:35 PM 57.2 °F - 8.6 °F 14% 30.09 in 10.0 mi South 5.8 mph - N/A   Overcast
5:55 PM 55.4 °F - 10.4 °F 17% 30.10 in 10.0 mi South 6.9 mph - N/A   Overcast
6:15 PM 55.4 °F - 10.4 °F 17% 30.10 in 10.0 mi South 6.9 mph - N/A   Overcast
6:35 PM 55.4 °F - 10.4 °F 17% 30.10 in 10.0 mi South 4.6 mph - N/A   Overcast
6:55 PM 53.6 °F - 10.4 °F 18% 30.09 in 10.0 mi South 4.6 mph - N/A   Overcast
7:15 PM 53.6 °F - 10.4 °F 18% 30.08 in 10.0 mi South 4.6 mph - N/A   Overcast
7:35 PM 53.6 °F - 10.4 °F 18% 30.08 in 10.0 mi South 5.8 mph - N/A   Overcast
7:55 PM 53.6 °F - 10.4 °F 18% 30.08 in 10.0 mi South 5.8 mph - N/A   Overcast
8:15 PM 53.6 °F - 12.2 °F 19% 30.07 in 10.0 mi South 3.5 mph - N/A   Overcast
8:35 PM 53.6 °F - 12.2 °F 19% 30.06 in 10.0 mi Calm Calm - N/A   Overcast
8:55 PM 53.6 °F - 12.2 °F 19% 30.06 in 10.0 mi Calm Calm - N/A   Overcast
9:15 PM 53.6 °F - 12.2 °F 19% 30.06 in 10.0 mi Calm Calm - N/A   Overcast
9:35 PM 53.6 °F - 12.2 °F 19% 30.06 in 10.0 mi Calm Calm - N/A   Overcast
9:55 PM 51.8 °F - 12.2 °F 21% 30.06 in 10.0 mi Calm Calm - N/A   Overcast
10:15 PM 51.8 °F - 15.8 °F 24% 30.05 in 10.0 mi Calm Calm - N/A   Overcast
10:35 PM 51.8 °F - 17.6 °F 26% 30.04 in 10.0 mi South 4.6 mph - N/A   Overcast
10:55 PM 50.0 °F - 17.6 °F 28% 30.03 in 10.0 mi South 4.6 mph - N/A   Overcast
11:15 PM 51.8 °F - 15.8 °F 24% 30.02 in 10.0 mi South 4.6 mph - N/A   Overcast
11:35 PM 51.8 °F - 15.8 °F 24% 30.02 in 10.0 mi SSW 4.6 mph - N/A   Overcast
11:55 PM 51.8 °F - 15.8 °F 24% 30.02 in 10.0 mi SSW 6.9 mph - N/A   Overcast